Tracking 29892 objects as of 21-Nov-2024
HD Live streaming from Space Station
objects crossing your sky now

COSMOS 1091

Track COSMOS 1091 now!
10-day predictions
COSMOS 1091 is classified as:


NORAD ID: 11320
Int'l Code: 1979-028A
Perigee: 967.4 km
Apogee: 1,011.3 km
Inclination: 82.9 °
Period: 104.7 minutes
Semi major axis: 7360 km
RCS: 2.1761 m2 (large)
Launch date: April 7, 1979
Source: Commonwealth of Independent States (former USSR) (CIS)
Launch site: PLESETSK MISSILE AND SPACE COMPLEX (PKMTR)
Your satellite tracking list
Your tracking list is empty




NASA's NSSDC Master Catalog

Two Line Element Set (TLE):
1 11320U 79028A   24326.11283608  .00000091  00000-0  79767-4 0  9999
2 11320  82.9250 198.8989 0029849 323.4987 201.0733 13.74843575288646
Source of the keplerian elements: AFSPC